Wind_Speed
28 29 29 30 30 31 31 32 32 32 32 32 32 33 33 33 33 34 34 34 35 36 36 36 37 37 38 38 38 39 39 39 40 40 41 41 41 42 42 43 43 44 45
30 30 31 31 31 32 32 33 33 33 33 33 33 34 34 34 35 35 35 35 35 36 36 37 37 37 38 38 39 39 40 40 41 41 42 42 43 43 44 44 45 45 45
32 32 32 32 32 33 33 33 33 34 34 34 34 35 35 35 36 36 36 36 36 36 37 37 38 38 38 39 39 40 40 41 41 42 43 43 44 44 45 45 46 46 46
33 33 33 33 33 33 33 34 34 34 35 35 35 36 36 36 37 37 37 37 37 37 38 38 39 39 39 40 40 41 41 42 42 43 44 44 45 46 46 47 47 48 48
33 33 34 34 34 34 34 35 35 35 36 36 37 37 37 37 38 38 38 39 39 39 39 40 40 41 41 41 42 42 43 43 44 45 46 46 47 47 48 48 49 49 50
34 34 34 35 35 35 36 36 36 36 37 38 38 38 38 38 39 39 40 40 41 41 41 42 42 43 43 43 44 44 45 46 46 47 47 48 48 49 50 50 51 51 52
35 35 36 36 36 36 37 37 37 38 38 38 39 39 39 40 40 41 42 42 43 43 43 43 44 44 44 45 45 46 46 47 48 48 49 50 50 51 51 52 52 53 54
35 36 36 36 36 37 38 38 38 38 39 39 39 40 40 41 42 43 43 44 44 45 45 44 45 45 45 46 46 47 48 49 49 50 51 51 52 52 53 54 54 55 55
36 36 36 36 37 38 39 39 39 40 40 41 41 42 42 41 41 42 43 44 45 45 45 45 46 46 47 48 48 49 49 50 51 51 52 52 53 54 54 55 55 56 57
36 36 36 37 38 39 39 39 40 41 41 42 43 43 43 43 43 42 43 44 44 45 46 47 48 48 49 50 50 51 51 51 52 53 54 54 55 55 56 56 57 57 58
36 37 37 38 38 39 40 41 42 42 43 43 43 43 44 44 45 44 43 44 45 46 46 47 48 49 50 51 51 52 53 53 54 55 55 56 57 57 58 58 59 60 60
37 37 38 38 39 39 40 42 42 43 44 44 44 45 45 45 46 46 45 45 45 46 47 48 49 50 50 51 52 53 54 55 55 56 57 58 59 60 60 61 62 62 63
37 38 38 39 39 40 42 43 44 44 44 45 45 46 46 46 47 47 48 47 47 46 47 48 49 50 51 52 53 54 56 57 58 59 60 61 62 63 63 64 65 66 67
38 38 38 39 40 42 43 44 44 45 45 45 46 46 47 48 49 49 49 49 48 47 47 48 50 52 53 54 55 56 58 59 61 62 63 64 65 66 67 68 69 70 71
37 38 39 41 42 43 43 44 45 45 46 47 47 47 48 49 50 50 50 50 50 49 48 50 52 53 55 57 58 60 61 62 63 65 66 67 69 70 72 73 74 75 75
38 39 41 42 43 43 44 45 46 46 47 48 48 48 49 50 50 51 51 51 52 52 52 53 55 57 59 60 62 63 64 65 67 68 70 71 73 74 75 76 77 77 78
39 40 42 43 43 44 45 46 47 47 48 48 49 50 51 51 51 51 52 53 55 56 57 57 59 61 63 64 65 66 68 69 70 72 73 74 76 77 77 77 78 78 79
40 41 42 43 44 45 46 47 47 48 49 49 50 51 51 52 52 53 55 56 58 60 61 61 62 64 66 67 69 70 71 72 74 74 75 76 76 77 76 76 77 77 76
40 41 43 44 45 46 46 47 48 49 49 50 51 52 52 53 55 56 58 59 61 63 64 65 65 67 69 70 71 72 73 74 75 75 76 76 76 75 75 75 74 73 71
41 43 44 45 45 46 47 48 49 50 51 51 52 53 54 56 57 59 61 62 64 65 67 68 69 70 71 72 74 74 74 74 74 75 75 74 72 71 69 68 66 64 62
42 44 44 45 46 47 48 49 50 51 52 52 53 55 57 59 60 62 63 65 66 68 70 71 72 72 72 73 74 74 74 73 72 71 69 67 66 64 62 61 59 57 54
43 44 44 45 47 48 49 51 52 52 53 54 55 58 60 61 63 64 66 67 69 71 72 73 74 74 73 74 74 73 72 70 67 65 64 61 61 58 56 55 52 49 47
43 44 45 47 48 49 50 52 53 54 54 56 58 60 62 64 65 66 68 69 71 72 74 75 75 74 74 73 72 70 68 66 63 61 60 56 54 52 50 48 45 42 38
44 45 46 48 49 50 52 52 53 55 56 59 61 63 64 65 67 69 70 71 72 72 74 75 75 74 72 70 69 67 65 62 60 58 56 52 47 44 42 40 38 34 32
45 46 47 48 50 51 52 53 55 57 59 61 63 65 67 68 70 72 72 72 72 72 74 74 73 70 68 67 66 64 62 60 56 52 50 46 41 38 35 34 31 29 28
45 46 47 49 50 52 53 55 58 59 61 63 65 67 68 70 71 72 73 73 73 73 73 71 68 67 66 64 62 61 58 55 52 47 43 40 36 33 29 28 27 26 24
Wind_Direction
291 291 292 292 291 290 290 290 290 290 290 290 291 291 292 292 292 292 291 291 290 289 289 288 287 286 285 284 283 282 281 280 280 279 278 278 277 276 275 274 273 272 270
291 291 292 292 291 290 290 290 291 291 291 292 292 293 293 293 293 293 292 292 292 291 290 288 287 286 286 284 283 282 282 281 280 279 279 278 277 276 275 274 273 272 271
290 290 290 291 291 290 291 291 291 292 292 293 293 293 294 294 294 294 293 293 292 292 291 290 288 287 286 285 284 283 282 281 281 280 279 279 278 277 276 274 273 272 271
290 290 290 291 291 291 291 291 292 293 293 294 294 295 295 295 296 295 295 294 293 292 291 290 289 287 286 285 284 283 283 282 281 280 279 279 278 277 276 275 274 273 272
289 289 290 290 290 290 291 291 292 293 294 294 294 295 295 296 296 296 295 295 294 293 292 291 289 288 287 286 285 284 283 282 282 281 280 279 278 277 276 275 274 273 272
288 289 289 289 290 290 290 291 292 293 294 295 295 295 296 297 297 297 296 295 295 294 292 291 290 289 288 287 286 285 284 283 283 282 281 280 279 278 277 276 274 274 273
287 288 289 289 289 290 291 292 293 294 295 295 295 296 297 297 297 297 296 296 295 294 293 292 291 290 289 288 287 286 285 285 284 283 282 281 280 279 277 276 275 274 273
286 288 288 288 289 290 291 292 293 294 295 296 296 296 297 297 297 297 297 297 296 295 294 293 292 291 290 289 288 287 287 286 285 284 283 282 281 279 278 277 276 275 273
286 287 288 288 289 291 292 293 294 294 295 296 297 297 297 296 296 297 297 297 297 296 295 294 294 293 292 291 290 289 288 287 286 285 285 283 282 281 280 279 277 276 275
285 287 287 288 289 291 292 294 295 296 297 297 298 298 298 298 297 297 297 297 296 296 295 295 294 293 292 292 291 290 289 289 288 287 286 285 284 283 281 280 279 277 276
285 286 287 288 290 291 293 294 296 297 298 298 298 298 298 298 298 298 298 298 298 297 296 295 294 293 293 292 292 292 291 290 289 288 287 286 285 284 283 282 280 279 277
284 286 287 289 290 292 293 295 297 298 298 299 299 299 299 299 299 299 298 298 298 297 297 296 295 294 294 293 293 292 291 291 290 289 288 287 286 285 284 283 281 280 278
284 285 287 289 291 292 294 296 297 297 298 299 299 300 300 300 300 300 300 299 299 298 298 297 296 295 295 294 294 293 292 291 291 290 289 288 287 286 285 284 282 281 279
284 285 287 289 291 293 294 296 297 298 299 299 300 300 300 301 301 301 301 301 300 299 299 298 297 297 296 296 295 294 293 292 292 291 290 289 288 287 285 284 283 281 280
283 285 288 290 292 293 294 296 297 298 299 300 300 301 301 302 302 302 302 302 301 300 300 299 299 298 298 297 296 296 295 294 293 292 291 290 289 287 286 284 283 281 280
283 286 289 291 293 294 295 296 297 298 300 301 301 302 302 302 302 302 302 302 302 301 301 301 300 299 299 298 298 297 296 295 294 293 292 291 290 288 287 285 283 281 280
285 288 290 291 293 294 295 296 298 299 301 301 302 302 303 302 303 303 303 303 302 302 302 302 301 301 300 299 298 297 297 296 295 294 293 292 291 290 289 287 285 284 282
287 289 291 292 293 295 296 297 299 300 301 302 302 303 303 303 303 303 303 303 303 303 303 303 302 301 301 300 299 298 297 297 296 295 294 294 293 292 290 289 287 285 283
288 289 291 293 294 295 297 298 299 301 302 302 303 303 303 303 304 304 304 304 304 304 304 303 303 302 301 300 300 299 299 298 297 297 296 295 294 292 291 289 288 287 285
289 290 292 293 295 296 298 299 300 301 302 303 303 304 304 304 305 305 305 305 304 304 304 304 304 303 302 302 301 300 299 299 298 298 297 296 295 294 293 291 290 288 287
290 292 293 294 295 297 298 300 301 302 302 303 304 304 305 305 305 305 305 305 305 305 305 305 305 304 303 302 301 301 300 300 299 299 298 297 296 295 294 293 291 290 288
291 292 293 294 296 298 299 300 301 302 303 303 304 304 305 305 305 305 306 306 306 306 306 305 305 305 304 303 302 302 302 302 301 300 298 298 297 296 294 293 292 290 288
292 293 295 296 297 299 300 301 301 302 303 304 304 305 305 306 305 305 306 306 307 306 306 306 306 306 305 304 304 304 304 304 303 302 300 299 297 296 295 293 292 290 287
293 294 296 297 298 299 300 300 301 303 303 304 305 306 306 306 306 306 306 307 307 307 306 306 306 306 306 305 305 305 304 304 304 303 301 300 297 296 294 293 291 289 287
294 295 296 297 298 299 300 301 302 303 304 305 306 306 306 306 306 306 307 307 307 307 307 307 307 306 306 306 306 305 305 305 305 304 301 300 298 296 294 293 291 289 288
295 296 297 298 299 300 301 302 303 304 305 306 306 307 306 307 307 307 307 308 308 307 307 307 306 306 306 306 306 306 306 306 306 304 301 299 298 295 293 291 289 289 288
Height
5827 5826 5824 5823 5821 5820 5818 5816 5815 5813 5812 5810 5808 5806 5804 5802 5800 5798 5796 5794 5791 5789 5787 5785 5783 5781 5779 5777 5776 5774 5772 5771 5770 5768 5767 5766 5765 5765 5764 5763 5763 5763 5762
5821 5820 5818 5817 5815 5813 5812 5810 5808 5807 5805 5803 5801 5799 5797 5795 5793 5791 5789 5786 5784 5781 5779 5777 5775 5772 5770 5769 5767 5765 5763 5762 5760 5759 5758 5756 5755 5754 5753 5753 5752 5752 5752
5815 5813 5812 5810 5809 5807 5805 5803 5802 5800 5798 5796 5794 5792 5790 5788 5785 5783 5781 5779 5776 5773 5771 5768 5766 5764 5762 5760 5758 5756 5754 5752 5751 5749 5748 5746 5745 5744 5743 5742 5741 5741 5741
5808 5807 5805 5804 5802 5800 5799 5797 5795 5793 5791 5789 5787 5785 5782 5780 5778 5775 5773 5770 5768 5765 5763 5760 5757 5755 5752 5750 5748 5746 5744 5742 5741 5739 5737 5736 5734 5733 5732 5730 5730 5729 5729
5802 5800 5798 5797 5795 5793 5792 5790 5788 5786 5784 5782 5780 5777 5775 5772 5769 5767 5764 5761 5759 5756 5754 5751 5748 5745 5743 5740 5738 5736 5734 5732 5730 5728 5726 5724 5723 5721 5720 5719 5718 5717 5716
5795 5793 5791 5790 5788 5786 5785 5783 5781 5778 5776 5774 5772 5769 5767 5764 5761 5758 5755 5752 5749 5746 5743 5741 5738 5735 5732 5730 5727 5725 5722 5720 5718 5716 5714 5712 5710 5709 5707 5706 5705 5704 5703
5787 5786 5784 5782 5781 5779 5777 5775 5773 5771 5768 5766 5764 5761 5758 5755 5752 5748 5745 5742 5739 5736 5733 5730 5727 5724 5721 5719 5716 5713 5711 5708 5706 5704 5701 5699 5697 5696 5694 5692 5691 5690 5689
5780 5778 5777 5775 5773 5771 5769 5767 5765 5762 5760 5757 5755 5753 5750 5747 5743 5739 5735 5732 5729 5725 5722 5719 5716 5713 5710 5707 5704 5701 5698 5695 5693 5690 5688 5686 5684 5682 5680 5678 5677 5676 5675
5772 5770 5769 5767 5765 5763 5761 5759 5756 5754 5751 5748 5745 5743 5740 5737 5734 5731 5726 5722 5718 5714 5711 5707 5704 5701 5698 5695 5691 5688 5685 5682 5679 5676 5674 5671 5669 5667 5665 5663 5662 5660 5659
5764 5762 5761 5759 5757 5755 5753 5750 5747 5745 5742 5739 5735 5732 5729 5726 5723 5721 5717 5712 5708 5704 5700 5696 5692 5688 5685 5681 5678 5675 5672 5669 5665 5662 5659 5656 5654 5651 5649 5647 5645 5644 5642
5756 5755 5753 5751 5749 5746 5744 5741 5738 5735 5732 5729 5726 5722 5719 5715 5711 5709 5707 5703 5698 5693 5689 5685 5681 5676 5672 5669 5665 5661 5658 5654 5651 5647 5644 5641 5638 5635 5633 5630 5628 5626 5625
5748 5746 5744 5743 5740 5738 5735 5732 5729 5726 5722 5719 5715 5712 5708 5704 5701 5697 5695 5691 5687 5683 5677 5673 5668 5664 5660 5656 5652 5647 5643 5639 5635 5632 5628 5624 5621 5618 5615 5612 5610 5608 5606
5740 5738 5736 5734 5732 5729 5726 5723 5720 5716 5712 5709 5705 5701 5697 5693 5689 5685 5682 5678 5675 5671 5666 5661 5655 5651 5647 5643 5638 5633 5629 5624 5620 5615 5611 5607 5603 5600 5596 5593 5590 5588 5586
5731 5729 5727 5725 5723 5720 5717 5713 5710 5706 5703 5698 5694 5690 5686 5682 5677 5673 5669 5665 5662 5660 5655 5649 5643 5638 5633 5628 5623 5618 5613 5608 5603 5598 5593 5589 5584 5580 5576 5573 5569 5566 5564
5723 5721 5719 5716 5714 5711 5707 5704 5700 5696 5692 5688 5684 5679 5675 5670 5665 5661 5656 5652 5648 5646 5643 5637 5630 5624 5618 5613 5607 5602 5596 5591 5585 5579 5574 5569 5564 5559 5554 5550 5546 5543 5539
5714 5712 5709 5707 5704 5701 5697 5694 5690 5686 5682 5677 5673 5668 5663 5659 5654 5648 5643 5639 5634 5630 5628 5623 5616 5609 5603 5597 5590 5584 5578 5572 5566 5559 5553 5547 5541 5535 5530 5525 5520 5516 5513
5705 5703 5700 5697 5694 5691 5687 5684 5680 5675 5671 5666 5662 5657 5652 5646 5641 5636 5631 5625 5620 5615 5612 5609 5600 5593 5586 5579 5573 5565 5559 5552 5545 5538 5531 5523 5517 5510 5504 5499 5494 5489 5486
5696 5693 5690 5687 5684 5681 5677 5673 5669 5664 5660 5655 5650 5645 5639 5634 5629 5623 5617 5611 5605 5599 5594 5591 5585 5576 5568 5560 5553 5546 5539 5531 5523 5515 5507 5500 5492 5485 5479 5472 5467 5462 5459
5686 5683 5681 5677 5674 5670 5666 5662 5658 5653 5648 5643 5638 5633 5627 5621 5615 5609 5603 5597 5590 5583 5576 5571 5566 5558 5549 5540 5532 5525 5517 5509 5500 5492 5484 5476 5468 5461 5454 5447 5442 5437 5433
5676 5674 5671 5667 5663 5659 5655 5651 5646 5642 5637 5631 5626 5620 5614 5607 5601 5595 5588 5581 5574 5566 5559 5552 5546 5539 5530 5520 5510 5503 5497 5488 5479 5469 5460 5452 5445 5438 5431 5424 5419 5415 5411
5667 5664 5660 5657 5653 5649 5644 5639 5635 5630 5625 5619 5613 5607 5600 5593 5586 5579 5572 5565 5557 5549 5541 5533 5526 5518 5510 5499 5490 5481 5473 5467 5459 5447 5439 5432 5424 5418 5411 5405 5400 5395 5392
5656 5653 5650 5646 5642 5637 5632 5627 5623 5618 5612 5606 5600 5594 5586 5579 5571 5563 5555 5547 5539 5530 5521 5513 5506 5497 5489 5478 5469 5459 5450 5444 5439 5430 5419 5414 5405 5400 5393 5388 5383 5379 5376
5646 5643 5639 5635 5630 5626 5620 5615 5610 5605 5599 5593 5586 5579 5572 5564 5555 5548 5540 5531 5522 5511 5501 5492 5485 5477 5467 5458 5448 5440 5431 5423 5416 5409 5401 5397 5389 5384 5378 5373 5369 5366 5363
5635 5632 5628 5623 5619 5614 5608 5603 5597 5592 5586 5579 5571 5564 5556 5548 5539 5530 5523 5515 5505 5494 5483 5474 5465 5457 5447 5438 5428 5420 5413 5406 5400 5392 5383 5379 5375 5370 5365 5360 5357 5354 5353
5624 5620 5616 5612 5607 5601 5595 5590 5584 5578 5572 5565 5557 5548 5539 5531 5522 5513 5504 5497 5488 5478 5466 5456 5446 5437 5428 5419 5410 5402 5395 5388 5383 5377 5369 5364 5361 5357 5354 5350 5347 5345 5344
5613 5609 5605 5599 5594 5589 5583 5576 5570 5564 5558 5551 5542 5533 5523 5514 5505 5494 5485 5476 5469 5460 5450 5440 5430 5421 5411 5403 5394 5386 5379 5372 5367 5363 5357 5352 5349 5346 5345 5342 5339 5338 5336